Location: Grandview
(34.8900°N, 117.1058°W)
Time: 15:47:58
(UTC-08:00)

OTV 5 (USA 277) - Pass Details

Date: 07 October 2017
Orbit: 404 x 417 km, 43.0° (Epoch: 07 September)

Event Time Altitude Azimuth Distance (km) Brightness Sun altitude
Rises 20:44:18 0° 251° (WSW) 2,344 ? -29.5°
Reaches altitude 10° 20:46:25 10° 255° (WSW) 1,482 ? -29.9°
Enters shadow 20:46:45 12° 256° (WSW) 1,352 ? -30.0°
